Terminal Aerodrome Forecast
Issued by NWS

Home | Current Version | Previous Version | Graphics & Text | Print | Product List | Glossary On
Versions: 1 2 3 4 5 6 7 8 9 10 11 12 13 14 15 16 17 18 19 20 21 22 23 24 25 26 27 28 29 30
000
FTUS43 KABR 311300 AAA
TAFATY
TAF AMD
KATY 311311Z 3113/0112 04012KT 6SM BR OVC005
     FM312200 04018G24KT P6SM OVC007
     FM010400 01018G25KT 2SM -SN OVC015=

USA.gov is the U.S. government's official web portal to all federal, state and local government web resources and services.